• Join FlightAware (Why Join?)
  • Login
  • US Flag 
07:04AM EST


 

Airport Tracker/Info


-or-


 

Live Flight TrackerFlight Track Log ✈ N178LA ✈ 29-Apr-2012 ✈ SC1 - KSCK

Flight Track Log - Related Links

Times and Time Zones

All times are in EDT time to prevent confusion due to time zone crossing. See the N178LA flight status page for this flight to view local times or setup timezone preferences in your user account.

Time Position Orientation Groundspeed Altitude Reporting Facility
EDT Latitude Longitude Course Direction KTS MPH feet Rate Location/Type
01:27PM 34.3667 -118.6333 329° Northwest 193 222 7,300  Level Southern California TRACON
01:28PM 34.4261 -118.6772 329° Northwest 210 242 8,900 1,182 Climbing Los Angeles Center
01:29PM 34.4775 -118.7142 332° Northwest 202 232 10,000 1,400 Climbing Los Angeles Center
01:30PM 34.5186 -118.7406 331° Northwest 197 227 11,700 1,500 Climbing Los Angeles Center
01:31PM 34.5619 -118.7697 329° Northwest 192 221 13,000 1,200 Climbing Los Angeles Center
01:32PM 34.6050 -118.8014 331° Northwest 181 208 14,100 1,100 Climbing Los Angeles Center
01:33PM 34.6481 -118.8306 336° Northwest 181 208 15,200 950 Climbing Los Angeles Center
01:34PM 34.6978 -118.8575 330° Northwest 176 203 16,000 595 Climbing Los Angeles Center
01:35PM 34.7469 -118.8919 334° Northwest 181 208 16,400 300 Climbing Los Angeles Center
01:36PM 34.7964 -118.9214 330° Northwest 186 214 16,600 50 Climbing Los Angeles Center
01:37PM 34.8497 -118.9586 334° Northwest 202 232 16,500 -50 Descending Los Angeles Center
01:38PM 34.8992 -118.9883 332° Northwest 209 241 16,500  Level Los Angeles Center
01:39PM 34.9525 -119.0231 330° Northwest 214 246 16,500  Level Los Angeles Center
01:40PM 35.0061 -119.0606 329° Northwest 219 252 16,500  Level Los Angeles Center
01:41PM 35.0572 -119.0978 332° Northwest 219 252 16,500  Level Los Angeles Center
01:42PM 35.1106 -119.1328 331° Northwest 219 252 16,500  Level Los Angeles Center
01:43PM 35.1700 -119.1731 331° Northwest 219 252 16,500  Level Los Angeles Center
01:44PM 35.2256 -119.2106 333° Northwest 219 252 16,500  Level Los Angeles Center
01:45PM 35.2789 -119.2433 330° Northwest 219 252 16,500  Level Los Angeles Center
01:46PM 35.3322 -119.2808 332° Northwest 219 252 16,500  Level Los Angeles Center
01:47PM 35.3856 -119.3161 333° Northwest 219 252 16,500  Level Los Angeles Center
01:48PM 35.4411 -119.3514 332° Northwest 219 252 16,500  Level Los Angeles Center
01:49PM 35.4942 -119.3867 330° Northwest 219 252 16,500  Level Los Angeles Center
01:51PM 35.5942 -119.4569 330° Northwest 228 262 16,500  Level Oakland Center
01:52PM 35.6467 -119.4942 329° Northwest 223 257 16,500  Level Oakland Center
01:53PM 35.6972 -119.5317 331° Northwest 223 257 16,500  Level Oakland Center
01:54PM 35.7519 -119.5689 329° Northwest 223 257 16,500  Level Oakland Center
01:55PM 35.8025 -119.6064 328° Northwest 218 251 16,500  Level Oakland Center
01:56PM 35.8656 -119.6542 328° Northwest 218 251 16,500  Level Oakland Center
01:57PM 35.9181 -119.6942 331° Northwest 218 251 16,500  Level Oakland Center
01:58PM 35.9728 -119.7317 328° Northwest 218 251 16,500  Level Oakland Center
01:59PM 36.0211 -119.7694 331° Northwest 218 251 16,500  Level Oakland Center
02:00PM 36.0758 -119.8072 329° Northwest 218 251 16,500 50 Level Oakland Center
02:01PM 36.1261 -119.8450 332° Northwest 218 251 16,600 50 Climbing Oakland Center
02:02PM 36.1786 -119.8803 327° Northwest 218 251 16,600  Level Oakland Center
02:03PM 36.2292 -119.9206 329° Northwest 218 251 16,600  Level Oakland Center
02:04PM 36.2794 -119.9586 329° Northwest 218 251 16,600  Level Oakland Center
02:05PM 36.3300 -119.9967 330° Northwest 218 251 16,600  Level Oakland Center
02:06PM 36.3867 -120.0372 327° Northwest 218 251 16,600  Level Oakland Center
02:07PM 36.4369 -120.0778 328° Northwest 218 251 16,600  Level Oakland Center
02:08PM 36.4872 -120.1161 331° Northwest 218 251 16,600  Level Oakland Center
02:09PM 36.5397 -120.1517 327° Northwest 218 251 16,600  Level Oakland Center
02:10PM 36.5900 -120.1925 329° Northwest 218 251 16,600  Level Oakland Center
02:11PM 36.6403 -120.2308 329° Northwest 218 251 16,600  Level Oakland Center
02:12PM 36.6906 -120.2692 330° Northwest 218 251 16,600  Level Oakland Center
02:13PM 36.7431 -120.3075 325° Northwest 218 251 16,600 -100 Level Oakland Center
02:14PM 36.7933 -120.3511 338° Northwest 218 251 16,400 -149 Descending Oakland Center
02:15PM 36.8436 -120.3767 326° Northwest 212 244 16,300 -303 Descending Oakland Center
02:16PM 36.8958 -120.4203 329° Northwest 212 244 15,800 -504 Descending Oakland Center
02:17PM 36.9503 -120.4617 325° Northwest 217 250 15,300 -552 Descending Oakland Center
02:19PM 37.0500 -120.5500 329° Northwest 232 267 14,200 -586 Descending Northern Cal TRACON
02:20PM 37.1167 -120.6000 332° Northwest 233 268 13,600 -626 Descending Northern Cal TRACON
02:21PM 37.1667 -120.6333 321° Northwest 238 274 13,000 -678 Descending Northern Cal TRACON
02:22PM 37.2167 -120.6833 338° Northwest 239 275 12,300 -700 Descending Northern Cal TRACON
02:23PM 37.2833 -120.7167 322° Northwest 236 272 11,600 -650 Descending Northern Cal TRACON
02:24PM 37.3333 -120.7667 338° Northwest 236 272 11,000 -650 Descending Northern Cal TRACON
02:25PM 37.4000 -120.8000 322° Northwest 238 274 10,300 -750 Descending Northern Cal TRACON
02:26PM 37.4500 -120.8500 322° Northwest 240 276 9,500 -800 Descending Northern Cal TRACON
02:27PM 37.5000 -120.9000 332° Northwest 239 275 8,700 -800 Descending Northern Cal TRACON
02:28PM 37.5500 -120.9333 329° Northwest 230 265 7,900 -843 Descending Northern Cal TRACON
02:29PM 37.6167 -120.9833 322° Northwest 228 262 7,000 -992 Descending Northern Cal TRACON
02:30PM 37.6667 -121.0333 332° Northwest 234 269 5,900 -1,158 Descending Northern Cal TRACON
02:31PM 37.7167 -121.0667 332° Northwest 222 255 4,800 -1,263 Descending Northern Cal TRACON
02:32PM 37.7667 -121.1000 322° Northwest 205 236 3,500 -1,350 Descending Northern Cal TRACON
02:33PM 37.8167 -121.1500 322° Northwest 202 232 2,100 -1,240 Descending Northern Cal TRACON
02:34PM 37.8500 -121.1833 322° Northwest 186 214 1,000 -942 Descending Northern Cal TRACON
02:35PM 37.8833 -121.2167 322° Northwest 134 154 200 -800 Descending Northern Cal TRACON